Peru, IL

5:32 PM CDT on March 22, 2017 (GMT -0500)
Illinois Valley Regional-Duncan

Weather History for KVYS - April, 2013

Change the Weather History Date:

Tuesday, April 23, 2013

  Actual Average Record
Temperature  
Mean Temperature 47 °F -  
Max Temperature 54 °F 62 °F 90 °F (1980)
Min Temperature 38 °F 41 °F 25 °F (1967)
Degree Days  
Heating Degree Days 18    
Moisture  
Dew Point 43 °F    
Average Humidity 88    
Maximum Humidity 93    
Minimum Humidity 62    
Precipitation  
Precipitation 0.39 in - - ()
Sea Level Pressure  
Sea Level Pressure 29.96 in    
Wind  
Wind Speed 8 mph (WNW)    
Max Wind Speed 16 mph    
Max Gust Speed 21 mph    
Visibility 8 miles    
Events Rain    
Averages and records for this station are not official NWS values.
T = Trace of Precipitation, MM = Missing Value Source: NWS Daily Summary

Daily Weather History Graph

Daily Weather History Graph

Search for Another Location

Airport or City:

Trip Planner

Search our weather history database for the weather conditions in past years. The results will help you decide how hot, cold, wet, or windy it might be!

Date:

Astronomy

Apr. 23, 2013 Rise Set
Actual Time 6:04 AM CDT 7:45 PM CDT
Civil Twilight 5:35 AM CDT 8:15 PM CDT
Nautical Twilight 4:59 AM CDT 8:50 PM CDT
Astronomical Twilight 4:21 AM CDT 9:29 PM CDT
Moon 5:39 PM CDT (4/23) 4:34 AM CDT (4/23)
Length of Visible Light 14h 39m
Length of Day
13h 41m
Waxing Gibbous, 94% of the Moon is Illuminated
Apr 23
Waxing Gibbous
Apr 25
Full
May 2
Last Quarter
May 9
New
May 17
First Quarter

Hourly Weather History & Observations

Time (CDT) Temp. Windchill Dew Point Humidity Pressure Visibility Wind Dir Wind Speed Gust Speed Precip Events Conditions
12:15 AM 56.7 °F - 43.7 °F 62% 30.02 in 10.0 mi ESE 8.1 mph - N/A   Overcast
12:35 AM 56.5 °F - 44.4 °F 64% 30.03 in 10.0 mi WSW 9.2 mph - N/A Rain Rain
12:55 AM 54.7 °F - 47.3 °F 76% 30.03 in 10.0 mi SW 8.1 mph - N/A Rain Light Rain
1:15 AM 52.9 °F - 46.8 °F 80% 30.03 in 10.0 mi SW 5.8 mph - N/A   Mostly Cloudy
1:35 AM 52.7 °F - 46.9 °F 81% 30.02 in 10.0 mi WSW 3.5 mph - N/A   Overcast
1:55 AM 53.6 °F - 46.8 °F 78% 30.01 in 10.0 mi WSW 4.6 mph - N/A Rain Light Rain
2:15 AM 53.2 °F - 47.3 °F 80% 29.99 in 10.0 mi Calm Calm - N/A   Overcast
2:35 AM 52.9 °F - 47.3 °F 81% 29.97 in 10.0 mi Calm Calm - N/A   Overcast
2:55 AM 53.1 °F - 47.8 °F 82% 29.98 in 10.0 mi WSW 3.5 mph - N/A   Overcast
3:15 AM 53.6 °F - 48.2 °F 82% 29.98 in 10.0 mi WSW 6.9 mph - N/A   Overcast
3:35 AM 53.6 °F - 48.6 °F 83% 29.97 in 10.0 mi WSW 6.9 mph - N/A   Overcast
3:55 AM 53.4 °F - 48.6 °F 84% 29.97 in 10.0 mi West 5.8 mph - N/A   Overcast
4:15 AM 53.1 °F - 48.4 °F 84% 29.94 in 10.0 mi East 6.9 mph - N/A   Overcast
4:35 AM 52.5 °F - 48.4 °F 86% 29.94 in 10.0 mi WSW 5.8 mph - N/A   Overcast
4:55 AM 52.5 °F - 48.4 °F 86% 29.93 in 10.0 mi ESE 5.8 mph - N/A   Overcast
5:15 AM 52.2 °F - 48.0 °F 86% 29.94 in 10.0 mi WSW 3.5 mph - N/A   Mostly Cloudy
5:35 AM 52.0 °F - 47.8 °F 86% 29.93 in 10.0 mi Calm Calm - N/A   Mostly Cloudy
5:55 AM 50.2 °F - 46.9 °F 89% 29.95 in 10.0 mi Calm Calm - N/A   Mostly Cloudy
6:15 AM 50.9 °F - 47.8 °F 89% 29.95 in 10.0 mi Calm Calm - N/A   Overcast
6:35 AM 51.3 °F - 47.7 °F 87% 29.94 in 10.0 mi Calm Calm - N/A   Mostly Cloudy
6:55 AM 50.9 °F - 48.2 °F 90% 29.93 in 10.0 mi Calm Calm - N/A   Scattered Clouds
7:15 AM 50.9 °F - 48.4 °F 91% 29.93 in 10.0 mi Calm Calm - N/A   Clear
7:35 AM 51.1 °F - 48.6 °F 91% 29.93 in 10.0 mi Calm Calm - N/A   Clear
7:55 AM 52.3 °F - 49.3 °F 89% 29.94 in 10.0 mi Calm Calm - N/A   Clear
8:15 AM 52.7 °F - 49.5 °F 89% 29.95 in 10.0 mi West 3.5 mph - N/A   Mostly Cloudy
8:35 AM 52.7 °F - 49.1 °F 88% 29.95 in 10.0 mi WNW 6.9 mph - N/A   Overcast
8:55 AM 52.2 °F - 49.1 °F 89% 29.95 in 10.0 mi WNW 9.2 mph - N/A   Overcast
9:15 AM 52.2 °F - 49.1 °F 89% 29.96 in 7.0 mi WNW 11.5 mph - N/A   Overcast
9:35 AM 50.4 °F - 47.5 °F 90% 29.96 in 4.0 mi WNW 13.8 mph - N/A   Drizzle
9:55 AM 49.3 °F - 46.6 °F 90% 29.95 in 5.0 mi WNW 11.5 mph - N/A   Light Drizzle
10:15 AM 48.6 °F - 45.9 °F 90% 29.95 in 7.0 mi WNW 10.4 mph - N/A   Light Drizzle
10:35 AM 47.3 °F - 44.6 °F 90% 29.96 in 7.0 mi WNW 10.4 mph - N/A   Drizzle
10:55 AM 46.2 °F 40.1 °F 43.7 °F 91% 29.97 in 4.0 mi WNW 13.8 mph 19.6 mph 0.02 in   Drizzle
11:15 AM 45.3 °F 38.7 °F 43.2 °F 92% 29.96 in 4.0 mi NW 15.0 mph - 0.02 in Rain Light Rain
11:35 AM 45.5 °F 39.9 °F 43.7 °F 93% 29.96 in 5.0 mi WNW 11.5 mph 17.3 mph 0.02 in   Drizzle
11:55 AM 45.3 °F 39.3 °F 43.2 °F 92% 29.97 in 5.0 mi WNW 12.7 mph 16.1 mph 0.03 in Rain Rain
12:15 PM 45.0 °F 38.2 °F 43.0 °F 93% 29.96 in 5.0 mi WNW 15.0 mph - 0.01 in Rain Rain
12:35 PM 44.4 °F 37.2 °F 42.3 °F 92% 29.98 in 4.0 mi NW 16.1 mph - 0.04 in Rain Rain
12:55 PM 43.0 °F 36.0 °F 40.8 °F 92% 30.00 in 3.0 mi WNW 13.8 mph - 0.08 in Rain Rain
1:15 PM 42.3 °F 34.8 °F 40.3 °F 93% 29.98 in 3.0 mi NW 15.0 mph - 0.04 in Rain Rain
1:35 PM 42.1 °F 35.7 °F 40.1 °F 93% 29.98 in 4.0 mi NW 11.5 mph - 0.07 in Rain Rain
1:55 PM 42.1 °F 35.7 °F 40.1 °F 93% 29.95 in 5.0 mi WNW 11.5 mph - 0.11 in Rain Light Rain
2:15 PM 41.9 °F 34.3 °F 39.9 °F 93% 29.93 in 10.0 mi WNW 15.0 mph - 0.01 in Rain Light Rain
2:35 PM 42.1 °F 35.2 °F 39.9 °F 92% 29.94 in 7.0 mi West 12.7 mph - 0.01 in   Light Drizzle
2:55 PM 42.1 °F 34.2 °F 39.7 °F 91% 29.92 in 7.0 mi West 16.1 mph - 0.02 in Rain Light Rain
3:15 PM 42.3 °F 35.1 °F 39.6 °F 90% 29.93 in 10.0 mi WNW 13.8 mph - N/A Rain Rain
3:35 PM 42.1 °F 34.5 °F 39.4 °F 90% 29.92 in 7.0 mi West 15.0 mph - 0.01 in Rain Light Rain
3:55 PM 42.1 °F 34.9 °F 39.4 °F 90% 29.92 in 7.0 mi West 13.8 mph - 0.02 in Rain Light Rain
4:15 PM 42.1 °F 35.2 °F 39.6 °F 91% 29.93 in 7.0 mi WNW 12.7 mph - 0.01 in Rain Light Rain
4:35 PM 41.9 °F 35.0 °F 39.4 °F 91% 29.94 in 7.0 mi WNW 12.7 mph 16.1 mph 0.03 in   Drizzle
4:55 PM 42.1 °F 36.1 °F 39.6 °F 91% 29.95 in 4.0 mi WNW 10.4 mph - 0.05 in Rain Rain
5:15 PM 41.4 °F 35.2 °F 39.2 °F 92% 29.95 in 7.0 mi WNW 10.4 mph - 0.01 in Rain Rain
5:35 PM 41.4 °F 34.3 °F 39.2 °F 92% 29.95 in 4.0 mi WNW 12.7 mph - 0.03 in Rain Light Rain
5:55 PM 41.0 °F 33.9 °F 38.7 °F 91% 29.96 in 7.0 mi WNW 12.7 mph 19.6 mph 0.03 in Rain Light Rain
6:15 PM 41.0 °F 33.1 °F 38.7 °F 91% 29.96 in 5.0 mi West 15.0 mph - N/A Rain Light Rain
6:35 PM 39.6 °F 31.0 °F 37.4 °F 92% 29.95 in 7.0 mi West 16.1 mph - 0.01 in Rain Light Rain
6:55 PM 39.6 °F 31.3 °F 37.4 °F 92% 29.96 in 10.0 mi West 15.0 mph - 0.01 in Rain Rain
7:15 PM 39.6 °F 32.1 °F 37.4 °F 92% 29.95 in 10.0 mi West 12.7 mph - N/A   Light Drizzle
7:35 PM 39.6 °F 31.7 °F 37.0 °F 91% 29.95 in 10.0 mi West 13.8 mph - N/A   Light Drizzle
7:55 PM 39.6 °F 31.7 °F 37.0 °F 91% 29.95 in 10.0 mi NNW 13.8 mph - N/A   Light Drizzle
8:15 PM 38.3 °F 30.5 °F 35.6 °F 90% 29.96 in 10.0 mi West 12.7 mph - N/A   Light Drizzle
8:35 PM 38.3 °F 31.9 °F 35.8 °F 91% 29.96 in 10.0 mi WNW 9.2 mph - N/A Rain Light Rain
8:55 PM 38.3 °F 31.9 °F 36.0 °F 91% 29.96 in 10.0 mi West 9.2 mph - N/A Rain Light Rain
9:15 PM 39.6 °F 32.5 °F 37.4 °F 92% 29.97 in 10.0 mi ENE 11.5 mph - 0.01 in Rain Light Rain
9:35 PM 39.6 °F 34.7 °F 37.4 °F 92% 29.98 in 10.0 mi WNW 6.9 mph - 0.01 in   Light Drizzle
9:55 PM 39.6 °F 33.0 °F 36.9 °F 90% 29.97 in 10.0 mi North 10.4 mph - 0.01 in   Light Drizzle
10:15 PM 39.6 °F 35.4 °F 37.0 °F 91% 29.98 in 10.0 mi NW 5.8 mph - N/A   Overcast
10:35 PM 39.6 °F 36.3 °F 37.0 °F 91% 29.98 in 10.0 mi West 4.6 mph - N/A   Overcast
10:55 PM 39.6 °F - 37.4 °F 92% 29.98 in 10.0 mi Calm Calm - N/A Rain Light Rain
11:15 PM 39.6 °F 34.7 °F 37.4 °F 92% 29.98 in 10.0 mi WNW 6.9 mph - N/A   Light Drizzle
11:35 PM 39.7 °F 34.3 °F 37.4 °F 91% 29.98 in 10.0 mi WNW 8.1 mph - N/A   Light Drizzle
11:55 PM 39.6 °F 31.0 °F 36.7 °F 89% 29.99 in 10.0 mi WNW 16.1 mph 20.7 mph 0.01 in   Drizzle